STARLINK-34648, 65091

Orbit data source: Space-Track

STARLINK-34648, 65091 is a payload satellite owned by SpaceX/Seattle (US) in LEO that was launched on Mon, 04 Aug 2025 UTC via an FALCON 9 launch vehicle from the Air Force Eastern Test Range (AFETR). Payload-class satellites include a variety of spacecraft equipped with specific instruments for various scientific and technological missions. These include communications satellites like Starlink; space stations such as the ISS; scientific satellites like the Hubble; Earth observation satellites from companies like Planet Labs, Umbra, and HawkEye 360; GPS; miniature CubeSats for education and research; and military/defense satellites.

Loading next visibility...
Identifier
65091, 2025-167P
Orbit
LEO
Country
Flag of USUS
Related business
Manufacturer
SpaceX/Seattle
Mission
Operational spacecraft
Bus & Motor
STARLINK V2MO, Unknown motor
Mass
575 kg wet, ~530 kg dry
Launch date (UTC)
2025-08-04 (1 month ago)
Launch vehicle
FALCON 9
Launch site
Air Force Eastern Test Range (AFETR)
Object type
Payload
Rocket body
Debris
Shape & HBR
Unknown
Radar Cross Section
Large (>1 m²)

Expand to show TLE details & history
Last TLE update: 9 hours ago

TLE from 9 hours ago
0 STARLINK-34648
1 65091U 25167P   25243.24199959  .00172120  00000-0  11544-2 0  9996
2 65091  53.1578 194.6938 0001232  93.6648 266.4512 15.74214827  4276
Epoch: 2025-08-31T05:48Z
TLE epoch observation values (Epoch: 2025-08-31T05:48:28.764Z)
Latitude
-0.00009°
Longitude
127.90913°
Altitude
347.834 km
Speed
7.701 km/s
True Right ascension
12h 58m 46s
True Declination
0° 00' 00"
Sunlit
Object was in daylight at epoch
Visualization orbit readout
Latitude
Unknown
Longitude
Unknown
Altitude
Unknown
Speed
Unknown
Apparent Right ascension
Unknown
Apparent Declination
Unknown
Sunlit
N/A
Visualization observer readout
Local Sidereal Time
06:16:20
Azimuth
Unknown
Elevation
Unknown
Doppler factor
Unknown
Orbital elements
Apogee altitude
347.956 km
Perigee altitude
346.299 km
Semi-major axis
6,725.265 km
Eccentricity
0.00012
Inclination
53.1578°
RAAN
194.6938°
Arg. of periapsis
93.6648°
True anomaly
266.43711°
Mean anomaly
266.4512°
Eccentric anomaly
266.44415°
Mean motion
3.93531 °/min
Orbital period
91.48 mins
BSTAR
0.0011544
Loading maneuver chart data...
Computing Atmospheric mass density...
Loading historical data...
Loading historical data...
Loading historical data...
Loading historical data...
Loading historical data...
Loading historical data...
Loading historical data...

Documentation

Showing up to 5 results
|